This is the latest recevied weather packets stored in our database for station/object W8AN. If no packets are shown the sender has not sent any weather packets the latest 10 day(s).
| Time | Temp. | Humidity | Pressure | Rain* | Wind** | Luminosity | Snow |
|---|---|---|---|---|---|---|---|
| 1777532119 | 6.67° C | 83% | 4267.2 hPa | 0 mm | - | 0 W/m² | - |
| 1777531815 | 6.11° C | 83% | 4267.2 hPa | 0 mm | - | 0 W/m² | - |
| 1777531510 | 6.11° C | 83% | 4267.2 hPa | 0 mm | - | 0 W/m² | - |
| 1777531209 | 6.67° C | 83% | 4267.2 hPa | 1.78 mm | - | 0 W/m² | - |
| 1777530906 | 6.67° C | 83% | 4267.1 hPa | 1.78 mm | - | 0 W/m² | - |
| 1777530603 | 6.67° C | 83% | 4267 hPa | 1.78 mm | - | 0 W/m² | - |
| 1777530301 | 6.67° C | 83% | 4267.2 hPa | 0 mm | - | 0 W/m² | - |
| 1777529996 | 6.67° C | 83% | 4267.5 hPa | 0 mm | - | 0 W/m² | - |
| 1777529694 | 6.67° C | 83% | 4267.2 hPa | 0 mm | - | 0 W/m² | - |
| 1777529390 | 6.67° C | 83% | 4267.3 hPa | 0 mm | - | 0 W/m² | - |
| 1777529087 | 6.67° C | 83% | 4267.5 hPa | 1.27 mm | - | 0 W/m² | - |
| 1777528782 | 6.67° C | 82% | 4267.6 hPa | 1.27 mm | - | 0 W/m² | - |
| 1777528479 | 6.67° C | 83% | 4267.5 hPa | 0 mm | - | 0 W/m² | - |
| 1777528178 | 6.67° C | 83% | 4267.4 hPa | 0 mm | - | 0 W/m² | - |
| 1777527875 | 6.67° C | 83% | 4267.6 hPa | 0 mm | - | 0 W/m² | - |
| 1777527570 | 6.67° C | 83% | 4267.4 hPa | 0 mm | - | 0 W/m² | - |
| 1777527266 | 6.67° C | 83% | 4267.5 hPa | 0 mm | - | 0 W/m² | - |
| 1777526961 | 6.67° C | 83% | 4267.4 hPa | 1.78 mm | - | 0 W/m² | - |
| 1777526657 | 6.67° C | 83% | 4267.4 hPa | 3.05 mm | - | 0 W/m² | - |
| 1777526352 | 7.22° C | 83% | 4267.4 hPa | 1.27 mm | - | 0 W/m² | - |
| 1777526049 | 7.22° C | 83% | 4267.2 hPa | 0 mm | - | 0 W/m² | - |
| 1777525745 | 7.22° C | 83% | 4267.3 hPa | 0 mm | - | 0 W/m² | - |
| 1777525442 | 7.22° C | 83% | 4267.3 hPa | 0 mm | - | 0 W/m² | - |
| 1777525138 | 7.22° C | 83% | 4267.4 hPa | 0 mm | - | 0 W/m² | - |
| 1777524835 | 7.22° C | 83% | 4267.3 hPa | 0 mm | - | 0 W/m² | - |
* Rain latest hour (hover to see other rain measurements)
** Current wind speed in m/s (hover to see current wind gust speed)